DELTA 1 DEB, 28443

Orbit data source: Space-Track

DELTA 1 DEB, 28443 is space debris in LEO originally from a launch on Thu, 08 Feb 1962 UTC launched from the Air Force Eastern Test Range (AFETR). Debris objects in space refer to the collection of defunct objects orbiting the Earth. Examples of debris include non-operational satellites, rocket bodies, and fragments generated from explosions, collisions, or faulty payload assembly.

Loading next visibility...
Identifier
28443, 1962-002E
Orbit
LEO
Country
Flag of USUS
Related business
Manufacturer
LM/EW
Mission
Spacecraft
Bus & Motor
Unknown
Mass
Unknown
Launch date (UTC)
1962-02-08 (64 years ago)
Launch vehicle
Unknown
Launch site
Air Force Eastern Test Range (AFETR)
Object type
Payload
Rocket body
Debris
Shape & HBR
Unknown shape, 0.1 m
Radar Cross Section
Small (<0.1 m²)

Expand to show TLE details & history
Last TLE update: 11 hours ago

TLE from 11 hours ago
0 DELTA 1 DEB
1 28443U 62002E   25298.78209399  .00000764  00000-0  19727-3 0  9990
2 28443  48.2682  77.5170 0071707 346.7637 154.7984 14.58395599273129
Epoch: 2025-10-25T18:46Z
TLE epoch observation values (Epoch: 2025-10-25T18:46:12.920Z)
Latitude
27.49912°
Longitude
-85.94983°
Altitude
745.126 km
Speed
7.462 km/s
True Right ascension
15h 20m 02s
True Declination
27° 21' 30"
Sunlit
Object was in daylight at epoch
Visualization orbit readout
Latitude
Unknown
Longitude
Unknown
Altitude
Unknown
Speed
Unknown
Apparent Right ascension
Unknown
Apparent Declination
Unknown
Sunlit
N/A
Visualization observer readout
Local Sidereal Time
01:24:28
Azimuth
Unknown
Elevation
Unknown
Doppler factor
Unknown
Orbital elements
Apogee altitude
750.139 km
Perigee altitude
648.637 km
Semi-major axis
7,077.525 km
Eccentricity
0.00717
Inclination
48.2682°
RAAN
77.517°
Arg. of periapsis
346.7637°
True anomaly
155.14547°
Mean anomaly
154.7984°
Eccentric anomaly
154.97221°
Mean motion
3.6452 °/min
Orbital period
98.76 mins
BSTAR
0.00019727
Loading maneuver chart data...
Computing Atmospheric mass density...
Loading historical data...
Loading historical data...
Loading historical data...
Loading historical data...
Loading historical data...
Loading historical data...
Loading historical data...
Other satellites on launch #2 in the year 1962 (1962-02-08 UTC)

Documentation

Showing up to 5 results
|